Location: A�t Lahcen
(32.8243°N, 5.4246°W)
Time: 00:31:48
(UTC+00:00)

USA 267 - Pass Details

Date: 27 January 2021
Orbit: 1102 x 1106 km, 123.0° (Epoch: 22 February)

Event Time Altitude Azimuth Distance (km) Brightness Sun altitude
Rises 05:05:42 0° 140° (SE) 3,906 6.8 -28.2°
Reaches altitude 10° 05:08:11 10° 142° (SE) 2,950 6.0 -27.7°
Maximum altitude 05:14:42 78° 228° (SW) 1,124 3.1 -26.3°
Enters shadow 05:16:25 53° 302° (WNW) 1,335 3.3 -25.9°
